SL-8 DEB, 1618

Orbit data source: Space-Track

SL-8 DEB, 1618 is space debris in LEO originally from a launch on Sat, 18 Sep 1965 UTC launched from the Tyuratam Missile And Space Complex (TTMTR). Debris objects in space refer to the collection of defunct objects orbiting the Earth. Examples of debris include non-operational satellites, rocket bodies, and fragments generated from explosions, collisions, or faulty payload assembly.

Loading next visibility...
Identifier
1618, 1965-073K
Orbit
LEO
Last TLE update
20 hours ago
Origin
Manufacturer
Unknown
Mission
Spacecraft
Bus & Motor
Unknown
Mass
Unknown
Launch date (UTC)
1965-09-18 (60 years ago)
Launch vehicle
Unknown
Launch site
Tyuratam Missile And Space Complex (TTMTR)
Object type
Payload
Rocket body
Debris
Shape & HBR
Unknown
Radar Cross Section
Medium (>0.1 m² and <1 m²)

Expand to show TLE details & history

TLE from 20 hours ago
0 SL-8 DEB
1 01618U 65073K   25128.39408189  .00000091  00000-0  14178-2 0  9990
2 01618  56.1731 119.1258 0226701 102.5833  44.3314 12.30294046673295
Epoch: 2025-05-08T09:27Z
Definitive object data (Epoch: 2025-05-08T09:27:28.675Z)
Latitude
25.57399°
Longitude
-87.81782°
Altitude
1,422.81 km
Speed
7.209 km/s
True Right ascension
18h 42m 04s
True Declination
25° 27' 06"
Sunlit
Object was in daylight at TLE epoch
Visualization TLE readout
Latitude
24.26008°
Longitude
-88.8071°
Altitude
1,424.003 km
Speed
7.208 km/s
Apparent Right ascension
21h 05m 09s
Apparent Declination
-6° 11' 32"
Sunlit
Object is in daylight
Visualization observer readout
Local Sidereal Time
13:06:43
Azimuth
74.947° E
Elevation
-26.484°
Doppler factor
1
Orbital elements
Apogee altitude
1,727.51 km
Perigee altitude
1,368.145 km
Semi-major axis
7,925.964 km
Eccentricity
0.0226701
Inclination
56.1731°
RAAN
119.1258°
Arg. of periapsis
102.5833°
True anomaly
46.18397°
Mean anomaly
44.3314°
Eccentric anomaly
45.25392°
Mean motion
3.07585 °/min
BSTAR
0.0014178
Orbital period
117.04 mins
Loading maneuver chart data...
Loading SW <> Apogee altitude chart data...
Loading historical data...
Loading historical data...
Loading historical data...
Loading historical data...
Loading historical data...
Loading historical data...
Loading historical data...

SL-8 DEB Visibility forecast

Observer location: undefined°, undefined°

Span
Click to sort rows by Start time (UTC) header in descending order
Start Az.
Max El. time (UTC)
Max El. Az.
Max El.
End time (UTC)
End Az.
14 mins2025-05-09 06:33:07.462Z316.087° NNW2025-05-09 06:40:07.462Z13.693° NNE25.849°2025-05-09 06:47:07.462Z71.76° E
15 mins2025-05-09 08:37:07.462Z320.15° NNW2025-05-09 08:44:07.462Z46.175° ENE42.188°2025-05-09 08:52:07.462Z120.957° SE
13 mins2025-05-09 10:40:07.462Z293.406° NW2025-05-09 10:46:07.462Z233.445° WSW30.097°2025-05-09 10:53:07.462Z177.621° S
12 mins2025-05-09 23:47:07.462Z165.076° S2025-05-09 23:53:07.462Z117.225° SE24.254°2025-05-09 23:59:07.462Z69.009° E
15 mins2025-05-10 01:47:07.462Z228.431° WSW2025-05-10 01:54:07.462Z274.476° WNW44.493°2025-05-10 02:02:07.462Z43.821° NE
13 mins2025-05-10 03:52:07.462Z285.392° WNW2025-05-10 03:58:07.462Z341.643° N28.458°2025-05-10 04:05:07.462Z40.921° NE
|